TimeCST,TemperatureF,Dew PointF,Humidity,Sea Level PressureIn,VisibilityMPH,Wind Direction,Wind SpeedMPH,Gust SpeedMPH,PrecipitationIn,Events,Conditions,WindDirDegrees,DateUTC
12:53 AM,21.0,18.0,88,29.65,6.0,South,11.5,-,N/A,,Clear,170,2014-01-10 06:53:00
1:53 AM,21.0,18.0,88,29.64,6.0,South,13.8,-,N/A,,Clear,170,2014-01-10 07:53:00
2:53 AM,19.9,17.1,89,29.63,5.0,South,11.5,-,N/A,,Clear,170,2014-01-10 08:53:00
3:53 AM,19.0,17.1,92,29.62,5.0,SSE,15.0,-,N/A,,Clear,160,2014-01-10 09:53:00
4:45 AM,17.6,15.8,93,29.56,5.0,SW,5.8,-,N/A,,Partly Cloudy,230,2014-01-10 10:45:00
4:53 AM,16.0,15.1,96,29.62,5.0,SSW,4.6,-,N/A,,Clear,210,2014-01-10 10:53:00
5:53 AM,15.1,12.9,91,29.61,5.0,SW,4.6,-,N/A,,Clear,220,2014-01-10 11:53:00
6:53 AM,14.0,12.0,92,29.62,6.0,SSW,5.8,-,N/A,,Partly Cloudy,200,2014-01-10 12:53:00
7:53 AM,15.1,12.9,91,29.62,6.0,South,5.8,-,N/A,,Overcast,180,2014-01-10 13:53:00
8:53 AM,16.0,14.0,92,29.61,6.0,SW,5.8,-,N/A,,Partly Cloudy,220,2014-01-10 14:53:00
9:53 AM,19.0,15.1,85,29.62,7.0,SSW,8.1,-,N/A,,Partly Cloudy,200,2014-01-10 15:53:00
10:53 AM,21.0,17.1,85,29.62,9.0,SW,10.4,-,N/A,,Clear,220,2014-01-10 16:53:00
11:53 AM,25.0,19.9,81,29.60,10.0,SSW,9.2,-,N/A,,Clear,210,2014-01-10 17:53:00
12:53 PM,30.0,23.0,75,29.57,10.0,WSW,5.8,-,N/A,,Overcast,240,2014-01-10 18:53:00
1:53 PM,32.0,24.1,73,29.56,10.0,SW,4.6,-,N/A,,Partly Cloudy,220,2014-01-10 19:53:00
2:53 PM,34.0,24.1,67,29.56,10.0,WNW,5.8,-,N/A,,Clear,290,2014-01-10 20:53:00
3:53 PM,34.0,23.0,64,29.56,10.0,WSW,6.9,-,N/A,,Clear,250,2014-01-10 21:53:00
4:53 PM,30.0,21.9,72,29.57,10.0,Calm,Calm,-,N/A,,Clear,0,2014-01-10 22:53:00
5:53 PM,21.0,18.0,88,29.59,10.0,SW,8.1,-,N/A,,Clear,220,2014-01-10 23:53:00
6:53 PM,18.0,14.0,84,29.59,10.0,SW,8.1,-,N/A,,Clear,230,2014-01-11 00:53:00
7:53 PM,14.0,12.0,92,29.59,10.0,SW,9.2,-,N/A,,Clear,230,2014-01-11 01:53:00
8:53 PM,12.9,10.0,88,29.59,10.0,WSW,8.1,-,N/A,,Clear,240,2014-01-11 02:53:00
9:53 PM,10.9,9.0,92,29.60,10.0,Calm,Calm,-,N/A,,Clear,0,2014-01-11 03:53:00
10:53 PM,12.0,9.0,88,29.59,10.0,Calm,Calm,-,N/A,,Clear,0,2014-01-11 04:53:00
11:53 PM,8.1,5.0,87,29.61,10.0,SSE,4.6,-,N/A,,Clear,160,2014-01-11 05:53:00